Location: Eastchurch
(51.4000°N, 0.8667°E)
Time: 01:08:30
(UTC+00:00)

IRS-P3 - Pass Details

Date: 19 January 2026
Orbit: 811 x 815 km, 99.0° (Epoch: 18 February)

Event Time Altitude Azimuth Distance (km) Brightness Sun altitude
Rises 17:50:16 0° 165° (SSE) 3,321 7.3 -13.1°
Reaches altitude 10° 17:52:36 10° 166° (SSE) 2,394 6.6 -13.4°
Maximum altitude 17:57:54 81° 254° (WSW) 829 4.2 -14.2°
Drops below altitude 10° 18:03:16 10° 343° (NNW) 2,413 6.6 -15.0°
Sets 18:05:37 0° 344° (NNW) 3,349 7.4 -15.4°
